Home   Weather   Neumünster   Past weeks

Flag for Germany Past Weather in Neumünster, Schleswig-Holstein, Germany — Yesterday and Last 2 Weeks

Now
61 °F

Scattered clouds.


Feels Like: 61 °F
Forecast: 47 / 68 °F
Wind: 5 mph from Northwest

Location: Itzehoe

Current Time: Jun 26, 2017 at 8:55:42 pm

Latest Report: Jun 26, 2017 at 7:00 pm


Visibility: 11 mi

Pressure: 29.92 "Hg

Humidity: 58%

Dew Point: 46 °F

Location of NeumünsterLocation

Past Weather in Neumünster — Graph

°F

Neumünster Temperature Yesterday

Maximum temperature yesterday: 64 °F (at 1:00 pm)
Minimum temperature yesterday: 56 °F (at 12:00 am)
Average temperature yesterday: 60 °F

High & Low Weather Summary for the Past Weeks

 TemperatureHumidityPressure
High81 °F (Jun 19, 4:00 pm)100% (Jun 19, 4:00 am)30.28 "Hg (Jun 19, 4:00 am)
Low45 °F (Jun 21, 4:00 am)45% (Jun 20, 4:00 pm)29.67 "Hg (Jun 22, 9:00 pm)
Average62 °F78%29.98 "Hg
* Reported Jun 11 7:00 pm — Jun 26 7:00 pm, Neumünster. Weather by CustomWeather, © 2017

Note: Actual official high and low records may vary slightly from our data, if they occured in-between our weather recording intervals... More about our weather records

Advertising

Neumünster Weather History for the Previous 24 Hours

Scroll right to see more
 ConditionsComfort  
Time TempWeatherWind HumidityBarometerVisibility
7:00 pm
Mon, Jun 26
61 °FScattered clouds.5 mph58%29.92 "Hg11 mi
6:00 pm60 °FPartly sunny.5 mph63%29.92 "Hg16 mi
4:00 pm61 °FPartly sunny.6 mph61%29.90 "Hg12 mi
3:00 pm63 °FScattered clouds.6 mph58%29.89 "Hg12 mi
1:00 pm63 °FPartly sunny.5 mph57%29.87 "Hg9 mi
12:00 pm63 °FScattered clouds.5 mph57%29.85 "Hg9 mi
10:00 am58 °FPartly sunny.2 mph80%29.83 "Hg15 mi
9:00 am60 °FScattered clouds.5 mph65%29.81 "Hg11 mi
7:00 am55 °FSunny.2 mph77%29.79 "Hg7 mi
6:00 am51 °FSunny.1 mph84%29.78 "Hg14 mi
4:00 am54 °FClear.1 mph81%29.78 "Hg19 mi
3:00 am56 °FOvercast.1 mph78%29.77 "Hg22 mi
1:00 am55 °FPassing clouds.2 mph84%29.78 "Hg19 mi
12:00 am57 °FPassing clouds.2 mph79%29.78 "Hg25 mi
10:00 pm
Sun, Jun 25
58 °FOvercast.2 mph77%29.79 "Hg22 mi
9:00 pm59 °FOvercast.2 mph74%29.79 "Hg22 mi
Weather by CustomWeather, © 2017

See weather overviewHow to use our weather pages